Wind_Speed
6 7 7 7 6 6 5 5 5 5 5 5 6 6 6 6 6 6 6 6 6 5 5 5 5 4 4 4 4 4 4 4 4 4 4 5 5 5 5 5 6 6 6
6 7 7 7 6 5 5 5 5 5 5 5 5 5 5 5 5 5 5 5 5 5 5 5 4 4 3 3 3 3 3 3 3 3 4 4 4 5 5 5 5 5 5
7 7 7 8 7 6 6 5 5 5 5 5 5 5 5 5 4 4 4 4 4 4 4 4 4 3 3 2 2 2 2 2 3 3 3 3 3 4 5 5 5 5 5
8 8 8 8 8 7 6 6 5 5 5 5 5 4 4 4 3 3 3 4 4 4 3 3 3 2 2 2 2 2 2 2 2 2 2 3 3 3 4 4 4 4 4
9 9 9 8 8 8 7 7 6 6 6 6 5 5 4 3 3 3 3 3 3 3 3 2 2 2 2 1 1 1 1 1 1 1 1 2 3 3 3 3 4 4 4
10 10 10 10 9 8 8 7 7 7 7 6 6 5 4 3 2 2 3 3 3 3 2 2 2 2 1 1 1 1 1 1 0 0 1 1 2 2 2 3 3 3 3
10 11 11 11 10 9 8 8 7 7 7 7 6 5 4 3 2 2 2 3 2 2 2 1 1 1 1 1 1 1 1 1 1 1 1 0 0 1 2 2 2 2 2
10 11 11 12 11 10 10 9 9 8 8 7 6 5 4 3 3 2 2 2 2 1 1 1 1 0 0 1 1 1 1 1 1 1 1 1 0 0 1 2 2 1 1
10 12 13 13 12 12 11 11 10 9 8 8 7 6 5 4 3 3 2 2 1 1 1 1 1 0 1 1 1 1 1 1 1 2 2 2 2 1 1 2 2 1 1
10 12 13 14 13 13 13 12 12 11 10 9 8 7 6 4 4 3 3 2 1 1 1 1 0 1 1 2 2 2 1 1 1 2 2 2 3 2 2 3 3 2 2
10 13 14 14 14 14 14 14 13 12 11 10 9 7 7 5 5 4 4 3 2 1 1 0 0 1 2 2 2 2 2 2 2 2 2 2 2 2 2 3 4 3 4
11 12 14 14 16 16 16 16 15 15 13 12 10 9 7 6 5 5 4 4 3 1 1 0 1 1 2 2 2 1 2 2 3 2 2 2 2 2 2 3 3 4 5
12 13 14 16 17 17 17 18 17 16 15 14 12 10 8 7 6 5 5 4 4 2 1 1 1 1 2 2 2 1 2 2 4 3 2 2 3 2 2 3 3 4 4
12 12 14 15 16 18 19 18 19 18 16 15 13 11 9 8 7 6 6 5 5 3 2 2 2 2 2 2 1 2 2 2 2 2 3 3 3 3 3 3 3 3 4
13 13 13 14 16 17 18 19 20 19 18 16 14 12 11 9 8 7 7 6 6 5 3 3 2 2 2 2 1 2 2 1 2 2 3 3 3 3 3 3 3 3 4
14 14 14 14 15 16 18 20 20 20 19 17 16 14 12 10 10 8 7 7 6 5 4 3 3 3 2 1 1 1 1 1 1 3 3 3 3 3 2 2 2 2 3
15 15 15 15 15 16 17 19 19 20 19 18 17 15 13 11 10 9 7 7 5 5 5 4 3 2 2 1 1 0 1 1 1 2 3 2 2 2 2 2 2 2 2
15 15 16 16 16 17 17 18 19 19 20 18 17 15 13 12 10 9 8 7 6 6 5 4 3 2 2 1 1 0 1 1 1 1 1 2 2 2 1 1 2 2 2
14 15 16 17 17 17 18 18 17 20 21 20 18 16 15 13 11 10 9 7 6 6 5 4 3 2 1 0 1 1 1 1 1 2 2 2 2 2 2 1 1 2 2
15 15 16 17 18 18 18 18 17 20 21 20 18 17 16 15 13 11 10 8 7 6 6 5 5 3 2 1 0 0 1 1 2 2 2 2 2 2 2 2 2 2 2
15 15 16 16 18 19 18 18 18 18 20 20 19 18 17 16 14 12 10 9 8 7 6 6 5 4 3 2 1 1 0 1 2 2 2 2 3 3 2 2 3 3 3
13 14 15 16 17 18 18 18 18 19 19 19 19 18 18 17 15 13 12 10 9 8 7 6 5 4 4 3 2 2 1 1 1 2 2 3 3 3 3 3 3 3 3
14 14 14 15 17 18 19 18 18 19 19 18 18 19 19 18 17 15 13 12 11 9 8 7 6 5 5 4 3 2 2 2 1 1 2 2 2 2 3 3 4 3 3
13 13 14 15 16 17 17 17 18 19 20 19 19 19 19 18 17 16 15 13 12 10 9 9 8 7 7 5 5 4 3 3 3 2 2 2 2 3 3 4 4 4 4
12 12 13 15 15 16 16 17 17 19 20 20 20 19 19 19 18 16 16 14 13 12 11 10 10 9 8 7 7 6 6 5 5 4 4 4 4 4 5 5 5 5 5
11 12 12 13 14 14 15 16 17 18 20 20 20 19 18 18 18 17 16 16 15 14 13 12 12 11 10 9 9 8 8 8 8 7 7 7 7 7 7 7 7 7 8
Wind_Direction
190 184 179 179 175 173 177 180 177 172 166 160 152 142 133 124 118 111 104 100 101 102 102 102 100 99 98 97 98 99 98 98 95 92 93 91 88 83 82 82 84 82 81
206 198 191 186 182 182 186 191 190 184 180 172 162 150 140 130 124 115 107 104 103 105 107 106 104 102 100 101 103 105 101 95 97 94 90 89 85 83 83 84 86 84 82
221 210 202 195 190 191 195 199 200 197 195 185 173 160 149 137 128 116 108 108 107 106 107 108 108 108 108 111 115 118 112 100 104 106 97 90 88 91 90 87 84 82 80
232 219 211 206 199 199 202 208 213 212 208 196 184 170 159 148 134 118 111 109 104 103 105 106 107 110 119 131 128 128 121 123 114 109 96 102 100 97 94 90 86 84 83
237 227 221 217 211 207 210 218 224 220 216 206 193 182 169 158 143 124 117 112 105 102 98 100 104 108 119 142 140 145 135 128 111 80 55 103 105 103 99 96 90 88 85
239 230 226 223 220 215 217 221 225 222 219 211 199 189 178 170 160 142 127 117 112 105 97 92 99 113 121 135 155 168 170 148 148 11 28 85 103 108 111 105 96 92 87
242 232 227 226 225 220 221 222 225 224 222 217 209 202 196 193 189 174 144 128 120 108 94 91 95 108 121 173 196 189 189 190 234 305 339 26 101 123 144 135 112 95 85
245 233 226 224 224 223 223 225 226 227 229 226 222 216 209 201 200 188 162 148 134 111 84 81 92 149 222 253 219 216 232 250 246 268 308 320 329 71 175 168 152 127 97
248 236 229 226 224 223 223 226 228 229 231 230 229 228 223 217 212 203 189 182 169 119 77 81 92 190 255 274 278 264 256 267 240 264 288 293 281 278 232 199 195 202 208
248 238 232 230 226 224 225 227 229 230 232 232 234 237 234 235 230 223 212 206 202 163 114 93 53 291 290 288 289 293 291 296 267 260 279 295 289 274 257 229 222 229 237
257 240 234 231 228 226 225 226 229 232 234 235 238 241 241 243 242 234 225 218 215 208 181 216 304 303 297 291 291 300 309 313 277 271 284 301 304 283 265 249 239 245 249
267 249 236 234 231 227 226 227 229 231 234 236 238 241 245 246 244 238 230 223 220 215 201 216 284 299 298 293 287 283 304 304 307 296 280 286 298 302 278 266 263 257 258
268 255 242 238 235 230 228 228 228 230 232 236 239 241 244 243 241 242 234 223 219 221 223 238 287 307 286 274 280 291 296 293 276 288 290 291 288 288 282 271 277 270 261
268 260 247 238 238 234 230 231 229 230 232 234 237 238 241 247 248 243 237 229 225 229 236 256 282 300 288 289 295 303 305 306 290 300 309 305 296 290 285 280 275 269 258
266 263 253 242 241 236 232 234 232 229 231 233 236 236 239 247 250 244 239 237 234 237 243 261 278 292 293 287 289 300 317 312 309 315 315 309 305 307 299 282 275 269 256
268 261 253 245 245 241 238 236 234 230 230 230 233 236 237 244 249 246 243 240 234 236 245 258 272 284 299 299 274 294 323 341 339 330 323 326 311 297 305 287 270 277 279
271 265 257 249 246 247 242 239 236 233 231 231 234 234 237 242 244 244 244 240 240 243 249 259 278 283 286 279 230 274 336 347 310 311 325 323 320 290 288 269 272 284 292
270 265 260 252 249 249 246 245 237 232 229 227 229 233 237 236 238 242 242 244 244 247 251 257 269 273 288 279 181 147 352 354 355 339 343 355 352 339 309 265 278 299 305
271 266 261 254 252 250 246 247 241 234 229 226 227 231 232 232 235 239 237 241 244 245 245 251 254 262 266 185 121 85 44 28 14 25 36 29 21 19 17 3 319 312 319
272 268 260 257 252 249 244 242 244 236 227 226 227 228 229 229 232 235 233 233 236 238 245 251 249 248 236 231 78 61 38 30 20 30 43 43 41 41 36 26 12 356 346
274 268 259 258 252 248 243 241 240 235 229 227 226 226 227 228 229 231 232 232 232 238 246 249 242 236 246 259 246 255 338 9 19 24 34 39 39 41 36 19 19 15 359
274 265 260 255 250 244 242 243 238 235 230 228 227 226 226 228 228 231 231 230 232 237 242 243 239 239 249 255 245 251 256 296 354 14 23 33 39 37 34 25 23 13 5
277 268 256 250 247 243 244 243 239 235 229 227 227 227 226 227 230 231 227 227 230 233 236 236 238 242 249 247 252 263 273 278 297 339 3 16 19 19 11 8 7 7 359
278 268 258 249 246 244 243 241 238 233 229 226 226 227 227 228 227 227 227 226 229 232 235 235 239 245 251 252 254 263 273 276 286 300 313 320 323 329 335 338 344 349 353
278 273 263 251 247 244 242 242 237 228 225 225 226 227 227 227 227 229 229 228 228 233 235 237 242 246 250 253 257 263 268 274 277 281 283 288 296 303 308 313 317 322 326
278 272 267 256 249 243 239 239 234 228 225 226 228 228 227 227 228 228 229 230 230 233 237 240 244 247 250 255 260 263 265 270 273 273 272 273 281 287 292 297 303 308 308
Height
5879 5879 5880 5881 5882 5882 5883 5884 5884 5884 5884 5884 5884 5884 5884 5885 5885 5885 5885 5885 5885 5885 5885 5885 5885 5885 5885 5885 5885 5885 5886 5886 5886 5886 5887 5887 5887 5887 5888 5888 5889 5889 5889
5879 5879 5880 5881 5882 5883 5883 5884 5885 5885 5885 5885 5885 5885 5885 5885 5886 5886 5886 5886 5886 5886 5886 5886 5886 5886 5886 5886 5886 5886 5887 5887 5887 5887 5887 5888 5888 5888 5889 5889 5890 5890 5890
5879 5880 5881 5882 5882 5883 5884 5885 5885 5886 5886 5886 5886 5886 5886 5886 5887 5887 5887 5887 5887 5887 5887 5887 5887 5887 5887 5887 5887 5887 5887 5888 5888 5888 5888 5889 5889 5889 5890 5890 5891 5891 5891
5878 5880 5881 5882 5883 5883 5884 5885 5886 5886 5886 5887 5887 5887 5887 5887 5887 5887 5887 5888 5887 5887 5888 5888 5887 5888 5888 5888 5888 5888 5888 5888 5888 5888 5889 5889 5890 5890 5891 5891 5892 5892 5893
5878 5879 5880 5881 5882 5883 5884 5885 5886 5886 5887 5887 5887 5887 5887 5888 5888 5888 5888 5888 5888 5888 5888 5888 5888 5888 5888 5888 5888 5888 5889 5889 5889 5889 5889 5890 5890 5891 5891 5892 5893 5893 5894
5877 5878 5879 5880 5882 5883 5884 5885 5886 5886 5887 5887 5887 5888 5888 5888 5888 5888 5888 5889 5889 5889 5889 5889 5889 5888 5888 5889 5889 5889 5889 5889 5890 5890 5890 5890 5891 5892 5892 5893 5893 5894 5895
5876 5877 5878 5879 5881 5882 5883 5884 5885 5886 5887 5887 5887 5888 5888 5888 5888 5889 5889 5889 5889 5889 5889 5889 5889 5889 5889 5889 5889 5889 5890 5890 5890 5890 5891 5891 5891 5892 5893 5893 5894 5895 5895
5875 5876 5877 5878 5880 5881 5883 5884 5885 5886 5887 5887 5888 5888 5888 5888 5889 5889 5889 5889 5889 5889 5889 5889 5889 5889 5889 5889 5889 5890 5890 5890 5891 5891 5891 5892 5892 5892 5893 5894 5895 5895 5896
5874 5874 5875 5877 5878 5880 5881 5883 5884 5885 5886 5887 5888 5888 5888 5888 5889 5889 5889 5890 5889 5889 5890 5889 5889 5889 5889 5889 5889 5890 5890 5890 5891 5891 5891 5892 5892 5893 5893 5894 5895 5896 5896
5872 5873 5874 5875 5877 5878 5880 5882 5883 5885 5886 5887 5887 5888 5888 5888 5889 5889 5889 5889 5890 5890 5890 5890 5890 5889 5889 5890 5890 5890 5890 5890 5890 5891 5891 5891 5892 5893 5893 5894 5895 5896 5896
5870 5870 5871 5873 5875 5876 5878 5880 5882 5883 5884 5886 5887 5887 5888 5888 5889 5889 5889 5889 5889 5890 5890 5890 5890 5890 5890 5890 5890 5890 5890 5890 5890 5891 5891 5891 5892 5893 5893 5894 5895 5895 5896
5867 5867 5869 5871 5872 5874 5876 5878 5880 5881 5883 5885 5886 5887 5887 5888 5888 5889 5889 5889 5889 5890 5890 5890 5890 5890 5890 5890 5890 5890 5890 5891 5891 5891 5891 5892 5892 5893 5893 5894 5895 5895 5896
5864 5865 5867 5868 5870 5872 5874 5875 5877 5879 5881 5883 5885 5886 5887 5887 5888 5888 5889 5889 5889 5890 5890 5890 5890 5890 5890 5890 5890 5890 5890 5890 5891 5890 5891 5891 5892 5893 5893 5893 5894 5895 5895
5861 5863 5864 5866 5867 5869 5871 5873 5875 5878 5880 5881 5883 5884 5886 5887 5887 5888 5888 5889 5889 5890 5890 5890 5890 5890 5890 5890 5890 5890 5890 5890 5890 5890 5891 5891 5892 5892 5892 5893 5893 5894 5895
5859 5860 5861 5863 5865 5866 5868 5870 5873 5875 5878 5880 5881 5883 5884 5886 5886 5887 5888 5888 5889 5890 5890 5890 5890 5890 5890 5890 5890 5890 5890 5889 5889 5890 5891 5891 5891 5892 5892 5892 5893 5893 5894
5856 5857 5859 5860 5862 5864 5865 5867 5870 5873 5875 5878 5879 5881 5883 5884 5885 5886 5887 5888 5888 5889 5889 5890 5890 5890 5890 5890 5890 5890 5890 5890 5890 5890 5890 5890 5891 5891 5892 5892 5892 5893 5893
5854 5855 5857 5858 5859 5861 5862 5864 5867 5870 5872 5875 5877 5879 5881 5882 5883 5885 5886 5887 5887 5888 5889 5889 5890 5889 5889 5889 5889 5890 5890 5890 5890 5890 5890 5890 5890 5891 5891 5891 5892 5893 5893
5852 5853 5854 5855 5857 5858 5860 5862 5863 5866 5869 5872 5875 5877 5879 5881 5882 5883 5885 5886 5887 5888 5888 5889 5889 5889 5889 5889 5889 5890 5890 5890 5890 5890 5890 5890 5890 5890 5890 5891 5892 5892 5893
5849 5850 5851 5851 5853 5855 5857 5858 5860 5862 5865 5868 5872 5875 5877 5879 5881 5882 5884 5885 5886 5887 5888 5888 5889 5889 5889 5889 5889 5890 5890 5890 5890 5890 5890 5890 5890 5890 5890 5891 5892 5892 5893
5846 5847 5848 5848 5850 5852 5854 5855 5857 5859 5861 5864 5869 5872 5875 5877 5879 5880 5882 5883 5885 5886 5887 5887 5888 5888 5888 5889 5889 5889 5890 5890 5890 5890 5890 5890 5891 5891 5891 5891 5891 5892 5892
5843 5843 5844 5845 5846 5848 5850 5852 5855 5856 5858 5862 5866 5870 5873 5875 5877 5879 5881 5882 5883 5885 5886 5886 5887 5888 5888 5889 5889 5890 5890 5890 5890 5890 5890 5890 5890 5891 5891 5891 5891 5891 5892
5840 5840 5840 5841 5843 5845 5847 5849 5851 5853 5856 5860 5863 5867 5870 5872 5875 5877 5879 5880 5882 5883 5884 5885 5886 5887 5888 5888 5889 5889 5890 5891 5890 5890 5890 5890 5890 5890 5891 5891 5891 5891 5891
5837 5836 5836 5838 5839 5841 5843 5845 5848 5850 5853 5857 5861 5864 5867 5869 5872 5874 5876 5878 5880 5881 5883 5884 5885 5886 5887 5888 5888 5889 5889 5889 5889 5890 5890 5890 5890 5890 5890 5890 5890 5890 5891
5833 5833 5833 5834 5835 5837 5839 5841 5844 5847 5851 5854 5858 5861 5864 5866 5869 5871 5874 5876 5877 5879 5881 5882 5884 5885 5886 5887 5887 5887 5888 5888 5889 5889 5889 5889 5890 5890 5890 5890 5890 5890 5890
5831 5830 5830 5831 5832 5833 5835 5838 5841 5844 5848 5851 5854 5857 5860 5863 5866 5869 5871 5873 5875 5877 5879 5880 5882 5883 5884 5885 5886 5886 5886 5887 5887 5888 5888 5889 5889 5889 5889 5889 5889 5889 5889
5828 5828 5828 5828 5829 5830 5832 5835 5837 5841 5844 5848 5851 5854 5857 5860 5863 5865 5868 5870 5872 5874 5876 5878 5880 5881 5882 5883 5884 5884 5885 5885 5886 5886 5886 5887 5887 5887 5887 5887 5887 5887 5888